Aberdeen / Amory, MS

8:01 PM CDT on March 25, 2017 (GMT -0500)
Aberdeen / Amory

Weather History for KM40 - August, 2012

Change the Weather History Date:

Monday, August 13, 2012

  Actual Average (KCBM) Record (KCBM)
Temperature  
Mean Temperature 73 °F -  
Max Temperature 80 °F 88 °F 102 °F (1999)
Min Temperature 66 °F 69 °F 53 °F (2004)
Cooling Degree Days 8    
Growing Degree Days 23 (Base 50)    
Moisture  
Dew Point 56 °F    
Average Humidity 55    
Maximum Humidity 60    
Minimum Humidity 52    
Precipitation  
Precipitation 0.89 in - - ()
Sea Level Pressure  
Sea Level Pressure 29.97 in    
Wind  
Wind Speed 3 mph ()    
Max Wind Speed 16 mph    
Max Gust Speed 33 mph    
Visibility 8.6 miles    
Events Rain    
Averages and records for this station are not official NWS values.
T = Trace of Precipitation, MM = Missing Value Source: Averaged Metar Reports

Daily Weather History Graph

Daily Weather History Graph

Search for Another Location

Airport or City:

Trip Planner

Search our weather history database for the weather conditions in past years. The results will help you decide how hot, cold, wet, or windy it might be!

Date:

Astronomy

Aug. 13, 2012 Rise Set
Actual Time 6:14 AM CDT 7:42 PM CDT
Civil Twilight 5:48 AM CDT 8:08 PM CDT
Nautical Twilight 5:16 AM CDT 8:40 PM CDT
Astronomical Twilight 4:43 AM CDT 9:13 PM CDT
Moon 2:23 AM CDT (8/13) 4:48 PM CDT (8/13)
Length of Visible Light 14h 20m
Length of Day
13h 27m
Waning Crescent, 16% of the Moon is Illuminated
Aug 13
Waning Crescent
Aug 17
New
Aug 24
First Quarter
Aug 31
Full
Sep 8
Last Quarter

Hourly Weather History & Observations

Time (CDT) Temp. Heat Index Dew Point Humidity Pressure Visibility Wind Dir Wind Speed Gust Speed Precip Events Conditions
12:15 AM 66.2 °F - 50.0 °F 56% 30.03 in 10.0 mi Calm Calm - N/A   Clear
12:35 AM 66.2 °F - 48.2 °F 52% 30.02 in 10.0 mi Calm Calm - N/A   Clear
12:55 AM 68.0 °F - 51.8 °F 56% 30.02 in 10.0 mi Calm Calm - N/A   Clear
1:15 AM 68.0 °F - 51.8 °F 56% 30.02 in 8.0 mi Calm Calm - N/A   Clear
1:35 AM 66.2 °F - 50.0 °F 56% 30.01 in 9.0 mi Calm Calm - N/A   Clear
1:55 AM 66.2 °F - 50.0 °F 56% 30.01 in 8.0 mi Calm Calm - N/A   Clear
2:15 AM 66.2 °F - 50.0 °F 56% 30.01 in 9.0 mi Calm Calm - N/A   Clear
2:35 AM 66.2 °F - 48.2 °F 52% 30.01 in 8.0 mi Calm Calm - N/A   Partly Cloudy
2:55 AM 66.2 °F - 50.0 °F 56% 30.00 in 9.0 mi Calm Calm - N/A   Partly Cloudy
3:15 AM 66.2 °F - 50.0 °F 56% 30.00 in 9.0 mi Calm Calm - N/A   Clear
3:35 AM 66.2 °F - 50.0 °F 56% 29.99 in 10.0 mi Calm Calm - N/A   Partly Cloudy
3:55 AM 68.0 °F - 51.8 °F 56% 30.00 in 9.0 mi Calm Calm - N/A   Partly Cloudy
4:15 AM 68.0 °F - 51.8 °F 56% 30.00 in 9.0 mi Calm Calm - N/A   Clear
4:35 AM 66.2 °F - 50.0 °F 56% 30.00 in 10.0 mi Calm Calm - N/A   Clear
4:55 AM 66.2 °F - 50.0 °F 56% 30.00 in 10.0 mi Calm Calm - N/A   Clear
5:15 AM 66.2 °F - 50.0 °F 56% 30.00 in 9.0 mi Calm Calm - N/A   Clear
5:35 AM 66.2 °F - 51.8 °F 60% 29.99 in 9.0 mi Calm Calm - N/A   Clear
5:55 AM 68.0 °F - 51.8 °F 56% 29.99 in 10.0 mi SE 3.5 mph - N/A   Clear
6:15 AM 68.0 °F - 51.8 °F 56% 29.98 in 10.0 mi SSE 3.5 mph - N/A   Clear
6:35 AM 69.8 °F - 51.8 °F 53% 29.99 in 9.0 mi Calm Calm - N/A   Clear
6:55 AM 69.8 °F - 53.6 °F 56% 29.99 in 9.0 mi SSE 4.6 mph - N/A   Partly Cloudy
7:15 AM 71.6 °F - 53.6 °F 53% 29.99 in 9.0 mi South 4.6 mph - N/A   Clear
7:35 AM 71.6 °F - 55.4 °F 57% 29.99 in 9.0 mi SSE 4.6 mph - N/A   Clear
7:55 AM 73.4 °F - 55.4 °F 53% 29.99 in 9.0 mi South 3.5 mph - N/A   Clear
8:15 AM 73.4 °F - 57.2 °F 57% 30.00 in 8.0 mi SSW 3.5 mph - N/A   Clear
8:35 AM 75.2 °F - 59.0 °F 57% 30.00 in 9.0 mi South 5.8 mph - N/A   Clear
8:55 AM 77.0 °F - 59.0 °F 54% 30.00 in 8.0 mi South 6.9 mph - N/A   Clear
9:15 AM 78.8 °F - 60.8 °F 54% 29.99 in 9.0 mi South 6.9 mph - N/A   Clear
9:35 AM 77.0 °F - 60.8 °F 57% 30.00 in 10.0 mi SSW 5.8 mph - N/A   Clear
9:55 AM 78.8 °F - 60.8 °F 54% 29.99 in 9.0 mi South 4.6 mph - N/A   Clear
10:15 AM 78.8 °F - 60.8 °F 54% 29.99 in 8.0 mi South 3.5 mph - N/A   Scattered Clouds
10:35 AM 77.0 °F - 60.8 °F 57% 30.00 in 7.0 mi WSW 3.5 mph - N/A   Mostly Cloudy
10:55 AM 73.4 °F - 55.4 °F 53% 30.02 in 0.2 mi West 11.5 mph 27.6 mph 0.75 in Rain Heavy Rain
11:15 AM 71.6 °F - 55.4 °F 57% 30.01 in 2.0 mi WSW 6.9 mph - 0.12 in Rain Light Rain
11:35 AM 71.6 °F - 55.4 °F 57% 30.01 in 3.0 mi WSW 8.1 mph - 0.12 in Rain Light Rain
11:55 AM 71.6 °F - 55.4 °F 57% 30.01 in 5.0 mi WSW 5.8 mph - 0.13 in Rain Light Rain
12:15 PM 71.6 °F - 55.4 °F 57% 29.96 in 3.0 mi South 5.8 mph - N/A Rain Light Rain
12:35 PM 71.6 °F - 55.4 °F 57% 29.93 in 5.0 mi East 6.9 mph - 0.01 in   Light Drizzle
12:55 PM 73.4 °F - 55.4 °F 53% 29.92 in 8.0 mi NNE 10.4 mph - 0.01 in   Clear
1:15 PM 75.2 °F - 57.2 °F 53% 29.93 in 8.0 mi Calm Calm - N/A   Clear
1:35 PM 77.0 °F - 59.0 °F 54% 29.95 in 9.0 mi South 8.1 mph - N/A   Scattered Clouds
1:55 PM 78.8 °F - 60.8 °F 54% 29.96 in 9.0 mi South 8.1 mph - N/A   Scattered Clouds
2:15 PM 80.6 °F 81.8 °F 62.6 °F 54% 29.96 in 9.0 mi South 9.2 mph - N/A   Partly Cloudy
2:35 PM 80.6 °F 81.8 °F 62.6 °F 54% 29.97 in 9.0 mi SSE 8.1 mph - N/A   Mostly Cloudy
2:55 PM 80.6 °F 81.8 °F 62.6 °F 54% 29.97 in 9.0 mi SSE 10.4 mph - N/A   Mostly Cloudy
3:15 PM 78.8 °F - 62.6 °F 57% 29.96 in 10.0 mi South 9.2 mph - N/A   Partly Cloudy
3:35 PM 78.8 °F - 60.8 °F 54% 29.95 in 10.0 mi SSE 6.9 mph - N/A   Partly Cloudy
3:55 PM 80.6 °F 81.8 °F 62.6 °F 54% 29.95 in 10.0 mi SE 8.1 mph - N/A   Partly Cloudy
4:15 PM 78.8 °F - 62.6 °F 57% 29.95 in 10.0 mi SSE 8.1 mph - N/A   Partly Cloudy
4:35 PM 78.8 °F - 60.8 °F 54% 29.95 in 10.0 mi SSE 6.9 mph - N/A   Clear
4:55 PM 78.8 °F - 60.8 °F 54% 29.95 in 10.0 mi SSE 5.8 mph - N/A   Partly Cloudy
5:15 PM 78.8 °F - 60.8 °F 54% 29.94 in 10.0 mi SSE 6.9 mph - N/A   Partly Cloudy
5:35 PM 78.8 °F - 60.8 °F 54% 29.93 in 10.0 mi SSE 10.4 mph - N/A   Partly Cloudy
5:55 PM 78.8 °F - 60.8 °F 54% 29.92 in 10.0 mi SSE 9.2 mph - N/A   Clear
6:15 PM 77.0 °F - 60.8 °F 57% 29.93 in 10.0 mi SE 6.9 mph - N/A   Clear
6:35 PM 75.2 °F - 57.2 °F 53% 29.92 in 9.0 mi SE 6.9 mph - N/A   Clear
6:55 PM 75.2 °F - 57.2 °F 53% 29.93 in 9.0 mi SSE 4.6 mph - N/A   Clear
7:15 PM 73.4 °F - 57.2 °F 57% 29.92 in 10.0 mi SE 4.6 mph - N/A   Clear
7:35 PM 73.4 °F - 57.2 °F 57% 29.91 in 10.0 mi SSE 6.9 mph - N/A   Clear
7:55 PM 73.4 °F - 57.2 °F 57% 29.91 in 10.0 mi SE 5.8 mph - N/A   Clear
8:15 PM 73.4 °F - 57.2 °F 57% 29.93 in 10.0 mi SSE 5.8 mph - N/A   Clear
8:35 PM 73.4 °F - 57.2 °F 57% 29.93 in 10.0 mi South 5.8 mph - N/A   Partly Cloudy
8:55 PM 73.4 °F - 57.2 °F 57% 29.93 in 10.0 mi SE 6.9 mph - N/A   Partly Cloudy
9:15 PM 73.4 °F - 55.4 °F 53% 29.95 in 7.0 mi South 3.5 mph - N/A   Light Drizzle
9:35 PM 73.4 °F - 55.4 °F 53% 29.96 in 9.0 mi Calm Calm - N/A   Scattered Clouds
9:55 PM 73.4 °F - 55.4 °F 53% 29.93 in 5.0 mi South 12.7 mph 17.3 mph N/A Rain Light Rain
10:15 PM 71.6 °F - 55.4 °F 57% 29.88 in 6.0 mi NW 16.1 mph 24.2 mph N/A   Drizzle
10:35 PM 73.4 °F - 55.4 °F 53% 29.91 in 10.0 mi WSW 10.4 mph 33.4 mph N/A   Mostly Cloudy
10:55 PM 73.4 °F - 57.2 °F 57% 29.95 in 10.0 mi NW 5.8 mph - N/A   Mostly Cloudy
11:15 PM 73.4 °F - 55.4 °F 53% 29.93 in 10.0 mi Calm Calm - N/A   Mostly Cloudy
11:35 PM 73.4 °F - 55.4 °F 53% 29.91 in 7.0 mi SE 3.5 mph - N/A   Partly Cloudy
11:55 PM 73.4 °F - 55.4 °F 53% 29.92 in 7.0 mi Calm Calm - N/A   Clear